TimePDT,TemperatureF,Dew PointF,Humidity,Sea Level PressureIn,VisibilityMPH,Wind Direction,Wind SpeedMPH,Gust SpeedMPH,PrecipitationIn,Events,Conditions,WindDirDegrees,DateUTC
12:53 AM,64.9,60.1,84,29.91,10.0,SE,6.9,-,N/A,,Mostly Cloudy,130,2013-08-26 07:53:00
1:53 AM,64.0,60.1,87,29.91,10.0,SSE,6.9,-,N/A,,Overcast,150,2013-08-26 08:53:00
2:53 AM,64.0,59.0,84,29.91,10.0,ESE,4.6,-,N/A,,Mostly Cloudy,110,2013-08-26 09:53:00
3:53 AM,63.0,59.0,87,29.91,10.0,SSE,3.5,-,N/A,,Mostly Cloudy,160,2013-08-26 10:53:00
4:53 AM,62.1,57.9,86,29.92,10.0,SE,6.9,-,N/A,,Mostly Cloudy,130,2013-08-26 11:53:00
5:13 AM,62.6,59.0,88,29.92,10.0,SE,8.1,-,N/A,,Mostly Cloudy,130,2013-08-26 12:13:00
5:53 AM,62.1,57.9,86,29.92,10.0,SSE,5.8,-,N/A,,Mostly Cloudy,160,2013-08-26 12:53:00
6:53 AM,63.0,57.9,84,29.93,10.0,SSE,4.6,-,N/A,,Overcast,160,2013-08-26 13:53:00
7:53 AM,64.0,57.9,80,29.93,10.0,SSE,4.6,-,N/A,,Overcast,160,2013-08-26 14:53:00
8:53 AM,64.9,57.9,78,29.92,10.0,SE,5.8,-,N/A,,Mostly Cloudy,130,2013-08-26 15:53:00
9:53 AM,68.0,59.0,73,29.92,10.0,ESE,8.1,-,N/A,,Mostly Cloudy,110,2013-08-26 16:53:00
10:13 AM,66.2,59.0,78,29.92,10.0,Calm,Calm,-,N/A,,Mostly Cloudy,0,2013-08-26 17:13:00
10:53 AM,69.1,55.9,63,29.92,10.0,SSW,11.5,-,N/A,,Mostly Cloudy,210,2013-08-26 17:53:00
11:53 AM,73.9,55.0,52,29.92,10.0,South,13.8,18.4,N/A,,Mostly Cloudy,190,2013-08-26 18:53:00
12:53 PM,73.9,53.1,48,29.91,10.0,SSW,9.2,-,N/A,,Mostly Cloudy,210,2013-08-26 19:53:00
1:53 PM,75.9,51.1,42,29.91,10.0,SSW,10.4,-,N/A,,Mostly Cloudy,200,2013-08-26 20:53:00
2:53 PM,77.0,46.9,34,29.90,10.0,SSW,13.8,21.9,N/A,,Mostly Cloudy,210,2013-08-26 21:53:00
3:53 PM,78.1,46.0,32,29.89,10.0,South,10.4,18.4,N/A,,Mostly Cloudy,190,2013-08-26 22:53:00
4:53 PM,78.1,46.9,33,29.90,10.0,SSW,13.8,20.7,N/A,,Mostly Cloudy,210,2013-08-26 23:53:00
5:53 PM,75.0,48.9,40,29.91,10.0,West,16.1,-,0.00,,Mostly Cloudy,260,2013-08-27 00:53:00
6:53 PM,72.0,51.1,48,29.93,10.0,WSW,10.4,-,N/A,,Overcast,240,2013-08-27 01:53:00
7:53 PM,68.0,55.0,63,29.96,10.0,SW,11.5,-,0.00,Rain,Light Rain,230,2013-08-27 02:53:00
8:53 PM,66.0,57.9,75,29.98,9.0,West,5.8,-,0.00,Rain,Light Rain,270,2013-08-27 03:53:00
9:53 PM,63.0,61.0,93,29.98,6.0,SSE,5.8,-,0.10,Rain,Light Rain,150,2013-08-27 04:53:00
10:53 PM,64.0,61.0,90,29.98,10.0,ENE,3.5,-,0.07,,Overcast,60,2013-08-27 05:53:00
11:53 PM,63.0,60.1,90,29.97,10.0,East,3.5,-,0.02,,Overcast,100,2013-08-27 06:53:00